Regional Weather Roundup
Issued by NWS

Home | Current Version | Previous Version | Graphics & Text | Print | Product List | Glossary On
Versions: 1 2 3 4 5 6 7 8 9 10 11 12 13 14 15 16 17 18 19 20 21 22 23 24 25 26 27 28 29 30 31 32 33 34 35 36 37 38 39 40 41 42 43 44 45 46 47
000
ASUS45 KBOU 012007
RWRCO

WEATHER ROUNDUP FOR COLORADO
NATIONAL WEATHER SERVICE DENVER/BOULDER CO
200 PM MDT WED OCT 01 2014

NOTE: "FAIR" INDICATES FEW OR NO CLOUDS BELOW 12000 FEET WITH NO
SIGNIFICANT WEATHER AND/OR OBSTRUCTIONS TO VISIBILITY.

COZ001>005-013-030-031-012100-
...NORTHWEST COLORADO...

CITY           SKY/WX    TMP DP  RH WIND       PRES   REMARKS
CRAIG          CLOUDY    47  37  68 NE3       30.01F
HAYDEN         CLOUDY    41  34  75 SE5       30.01F
MEEKER         CLOUDY    46  40  79 E6        30.00F
MOUNT WERNER   NOT AVBL
STEAMBOAT SPGS CLOUDY    38  35  89 CALM      30.02S
WALDEN         CLOUDY    36  32  87 E3        30.01F
$$

COZ006>008-011-012100-
...WEST CENTRAL VALLEYS...

CITY           SKY/WX    TMP DP  RH WIND       PRES   REMARKS
GRAND JUNCTION PTSUNNY   55  42  61 NW3       29.98F
MONTROSE       CLOUDY    50  43  77 SE15      30.03F
EAGLE          PTSUNNY   48  43  81 CALM      30.02F
RIFLE          CLOUDY    50  41  71 VRB3      30.00F
DELTA          RAIN      54  44  70 CALM      30.01F
NUCLA          PTSUNNY   52  43  71 SE3       30.03F
$$

COZ017>023-064>068-012100-
...SOUTHWEST COLORADO...

CITY           SKY/WX    TMP DP  RH WIND       PRES   REMARKS
DURANGO        MOSUNNY   60  38  43 W14G23    29.96F
CORTEZ         LGT RAIN  60  42  51 N14       30.00S
PAGOSA SPRINGS MOSUNNY   56  38  51 S9G17     30.01F
TELLURIDE      RAIN     N/A N/A N/A W6        30.10S
WOLF CREEK PAS CLOUDY    32  32 100 S14G28    30.14F VSB 1/4 WCI  22
$$

COZ009-010-012-014-032>034-037-058>063-012100-
...CENTRAL COLORADO...

CITY           SKY/WX    TMP DP  RH WIND       PRES   REMARKS
ASPEN          CLOUDY    40  37  89 CALM      30.03F
BUENA VISTA    CLOUDY    49  32  51 NW14G20   29.99R
COPPER MTN     SNOW      34  30  86 W15       30.11F VSB<1/4 WCI  24
BERTHOUD PASS  LGT SNOW  28  25  86 W10       30.12S WCI  19
COTTONWOOD PAS PTSUNNY   45  32  61 SW17G28   30.03R
GUNNISON       PTSUNNY   43  36  75 SW15      30.06F
KREMMLING      LGT RAIN  41  36  81 SW3       30.02S
LEADVILLE      PTSUNNY   41  30  65 N9        30.04F
SALIDA         PTSUNNY   55  41  59 SE9G16    30.03F
SUNLIGHT       LGT SNOW  36  34  93 CALM      30.12S VSB 3/4
WILKERSON PASS NOT AVBL
$$

COZ069>075-012100-
...SAN LUIS VALLEY/SANGRE DE CRISTO MOUNTAINS...

CITY           SKY/WX    TMP DP  RH WIND       PRES   REMARKS
ALAMOSA        LGT RAIN  58  39  49 W8        29.97F
LA VETA PASS   PTSUNNY   45  37  76 S7        30.08F
SAGUACHE       CLOUDY    45  41  87 NE16G24   29.99R
$$

COZ035-036-038>040-012100-
...NORTHERN COLORADO FRONT RANGE...

CITY           SKY/WX    TMP DP  RH WIND       PRES   REMARKS
DENVER INTL AP PTSUNNY   64  41  42 E22G28    29.81F
DMNS CITY PARK   N/A     69  34  28 N6G12     29.79F
AURORA         PTSUNNY   66  34  30 SE9       29.81F
FRONT RANGE AP PTSUNNY   64  43  45 E22G28    29.83F
ERIE MUNI ARPT CLOUDY    65  34  31 N8        29.81F
BOULDER MUN AP CLOUDY    61  37  41 N7        29.83F
CENTENNIAL     LGT RAIN  63  34  33 W17G26    29.82F
BROOMFIELD     PTSUNNY   64  37  36 N13       29.83F
FORT COLLINS   PTSUNNY   63  39  42 E8        29.84F
LONGMONT       CLOUDY    65  40  40 NW8       29.85F
$$

COZ041-046-047-076>085-087-088-012100-
...PIKES PEAK/PALMER DIVIDE AND SOUTHERN FOOTHILLS...

CITY           SKY/WX    TMP DP  RH WIND       PRES   REMARKS
COLO. SPRINGS  MOSUNNY   67  30  25 S21       29.87F
A. F. ACADEMY  MOSUNNY   62  30  30 S15       29.87F
ELLICOTT       NOT AVBL
FALCON         MOSUNNY   64  30  28 S17       29.90F
FORT CARSON    MOSUNNY   67  32  27 S15G22    29.84F
LIMON          MOSUNNY   67  35  30 S12G22    29.85F
MONUMENT HILL  PTSUNNY   63  32  31 S13G20    29.88F
TRINIDAD       PTSUNNY   71  27  19 SE8G17    29.84F
$$

COZ042>045-048>051-090-091-012100-
...NORTHEAST COLORADO...

CITY           SKY/WX    TMP DP  RH WIND       PRES   REMARKS
GREELEY ARPT   MOSUNNY   66  43  42 E12       29.84F
AKRON          SUNNY     66  42  41 NE10G18   29.84F
BURLINGTON     MOSUNNY   72  37  28 E6        29.82F
WRAY           MOSUNNY   74  41  30 E5        29.81F
STERLING       SUNNY     70  45  40 NE8       29.82F
HOLYOKE        MOSUNNY   72  45  37 N6        29.81F
FORT MORGAN    MOSUNNY   69  39  33 NE8       29.84F
$$

COZ086-089-092>099-012100-
...SOUTHEAST COLORADO...

CITY           SKY/WX    TMP DP  RH WIND       PRES   REMARKS
PUEBLO         PTSUNNY   72  34  24 SE8       29.80F
LA JUNTA       SUNNY     74  37  26 SE10      29.80F
LAMAR          MOSUNNY   75  40  28 VRB3      29.78F
SPRINGFIELD      N/A     73  35  25 VRB3      29.81F
$$



USA.gov is the U.S. government's official web portal to all federal, state and local government web resources and services.